This demonstration page uses our WeatherBlox Daily Observations layout. Learn more.

Left ArrowRight Arrow

Hourly Observations for August 9, 2016

Temp ( °F °C ) Dew Point ( °F °C ) Humidity (%) Winds ( mph kmh ) Pressure ( in mb ) Visibility ( mi km ) Precip ( " mm )
12:14 am 00:14 Clear 64 18 61 16 88 88 Calm 30.03 1017 10 16.0934 N/A
12:35 am 00:35 Clear 66 19 59 15 78 78 Calm 30.03 1017 10 16.0934 N/A
12:54 am 00:54 Clear 64 18 61 16 88 88 NE 3 6 30.03 1017 10 16.0934 N/A
1:14 am 01:14 Clear 64 18 61 16 88 88 Calm 30.03 1017 10 16.0934 N/A
1:35 am 01:35 Partly Cloudy 66 19 59 15 78 78 Calm 30 1016 10 16.0934 N/A
1:54 am 01:54 Partly Cloudy 64 18 61 16 88 88 Calm 30 1016 10 16.0934 N/A
2:14 am 02:14 Partly Cloudy 64 18 59 15 83 83 Calm 30 1016 10 16.0934 N/A
2:35 am 02:35 Clear 64 18 59 15 83 83 Calm 30 1016 10 16.0934 N/A
2:54 am 02:54 Clear 64 18 59 15 83 83 Calm 30 1016 10 16.0934 N/A
3:14 am 03:14 Clear 64 18 59 15 83 83 Calm 30 1016 10 16.0934 N/A
3:35 am 03:35 Clear 63 17 59 15 88 88 Calm 30 1016 10 16.0934 N/A
3:54 am 03:54 Clear 64 18 59 15 83 83 Calm 30 1016 10 16.0934 N/A
4:14 am 04:14 Clear 63 17 59 15 88 88 Calm 30 1016 10 16.0934 N/A
4:34 am 04:34 Clear 63 17 59 15 88 88 Calm 30 1016 10 16.0934 N/A
4:54 am 04:54 Clear 63 17 61 16 94 94 Calm 30 1016 10 16.0934 N/A
5:14 am 05:14 Clear 64 18 61 16 88 88 Calm 30 1016 10 16.0934 N/A
5:34 am 05:34 Clear 64 18 61 16 88 88 Calm 30 1016 10 16.0934 N/A
5:54 am 05:54 Clear 64 18 61 16 88 88 Calm 30 1016 10 16.0934 N/A
6:14 am 06:14 Clear 63 17 61 16 94 94 Calm 30 1016 10 16.0934 N/A
6:34 am 06:34 Clear 63 17 61 16 94 94 Calm 30 1016 10 16.0934 N/A
6:54 am 06:54 Partly Cloudy 63 17 61 16 94 94 Calm 30.03 1017 10 16.0934 N/A
7:14 am 07:14 Partly Cloudy 63 17 61 16 94 94 Calm 30.03 1017 10 16.0934 N/A
7:34 am 07:34 Partly Cloudy 64 18 63 17 94 94 Calm 30.03 1017 10 16.0934 N/A
7:54 am 07:54 Mostly Cloudy 66 19 63 17 88 88 Calm 30.03 1017 10 16.0934 N/A
8:14 am 08:14 Cloudy 68 20 66 19 94 94 Calm 30.03 1017 10 16.0934 N/A
8:34 am 08:34 Mostly Cloudy 72 22 66 19 83 83 ESE 3 6 30 1016 10 16.0934 N/A
8:54 am 08:54 Mostly Cloudy 73 23 68 20 83 83 ESE 3 6 30 1016 10 16.0934 N/A
9:14 am 09:14 Partly Cloudy 73 23 68 20 83 83 SE 3 6 30 1016 10 16.0934 N/A
9:34 am 09:34 Sunny 75 24 68 20 78 78 ESE 3 6 30 1016 10 16.0934 N/A
9:54 am 09:54 Sunny 75 24 70 21 83 83 Calm 30 1016 10 16.0934 N/A
10:14 am 10:14 Sunny 77 25 70 21 79 79 Calm 30 1016 10 16.0934 N/A
10:34 am 10:34 Sunny 79 26 70 21 74 74 Calm 30 1016 10 16.0934 N/A
10:54 am 10:54 Sunny 79 26 72 22 79 79 Calm 30 1016 10 16.0934 N/A
11:14 am 11:14 Sunny 81 27 70 21 70 70 E 3 6 30 1016 10 16.0934 N/A
11:34 am 11:34 Partly Cloudy 81 27 72 22 74 74 Calm 30 1016 10 16.0934 N/A
11:54 am 11:54 Mostly Cloudy 81 27 72 22 74 74 Calm 30 1016 10 16.0934 N/A
12:15 pm 12:15 Partly Cloudy 82 28 72 22 70 70 SW 5 7 30 1016 10 16.0934 N/A
12:34 pm 12:34 Sunny 84 29 70 21 62 62 Calm 30 1016 10 16.0934 N/A
12:54 pm 12:54 Partly Cloudy 82 28 70 21 66 66 Calm 30 1016 10 16.0934 N/A
1:14 pm 13:14 Partly Cloudy 82 28 70 21 66 66 Calm 30 1016 10 16.0934 N/A
1:34 pm 13:34 Partly Cloudy 84 29 72 22 66 66 Calm 30 1016 10 16.0934 N/A
1:54 pm 13:54 Mostly Cloudy 84 29 70 21 62 62 Calm 30 1016 10 16.0934 N/A
2:14 pm 14:14 Mostly Cloudy 86 30 72 22 62 62 ENE 5 7 30 1016 10 16.0934 N/A
2:34 pm 14:34 Cloudy 86 30 72 22 62 62 Calm 29.97 1015 10 16.0934 N/A
2:54 pm 14:54 Partly Cloudy 86 30 72 22 62 62 Calm 29.97 1015 10 16.0934 N/A
3:15 pm 15:15 Sunny 86 30 70 21 59 59 ESE 3 6 29.97 1015 10 16.0934 N/A
3:34 pm 15:34 Partly Cloudy 88 31 70 21 55 55 S 3 6 29.94 1014 10 16.0934 N/A
3:54 pm 15:54 Sunny 88 31 72 22 59 59 SSE 6 9 29.94 1014 10 16.0934 N/A
4:15 pm 16:15 Sunny 88 31 72 22 59 59 SSE 7 11 29.94 1014 10 16.0934 N/A
4:34 pm 16:34 Sunny 86 30 70 21 59 59 SSW 3 6 29.97 1015 10 16.0934 N/A
4:54 pm 16:54 Sunny 88 31 70 21 55 55 ESE 3 6 29.94 1014 10 16.0934 N/A
5:15 pm 17:15 Partly Cloudy 86 30 70 21 59 59 S 6 9 29.97 1015 10 16.0934 N/A
5:34 pm 17:34 Mostly Cloudy 84 29 72 22 66 66 S 5 7 29.97 1015 10 16.0934 N/A
5:54 pm 17:54 Mostly Cloudy 86 30 72 22 62 62 Calm 29.97 1015 10 16.0934 N/A
6:15 pm 18:15 Partly Cloudy 88 31 72 22 59 59 N 3 6 29.94 1014 10 16.0934 N/A
6:34 pm 18:34 Partly Cloudy 88 31 70 21 55 55 Calm 29.94 1014 10 16.0934 N/A
6:54 pm 18:54 Partly Cloudy 86 30 72 22 62 62 N 3 6 29.97 1015 10 16.0934 N/A
7:15 pm 19:15 Partly Cloudy 84 29 73 23 70 70 N 5 7 29.94 1014 10 16.0934 N/A
7:34 pm 19:34 Sunny 84 29 73 23 70 70 NNE 3 6 29.94 1014 10 16.0934 N/A
7:54 pm 19:54 Partly Cloudy 82 28 73 23 74 74 NNE 3 6 29.97 1015 10 16.0934 N/A
8:15 pm 20:15 Partly Cloudy 82 28 73 23 74 74 NNE 3 6 29.97 1015 10 16.0934 N/A
8:34 pm 20:34 Mostly Cloudy 81 27 73 23 79 79 Calm 29.97 1015 10 16.0934 N/A
8:54 pm 20:54 Cloudy 81 27 73 23 79 79 Calm 29.97 1015 10 16.0934 N/A
9:15 pm 21:15 Partly Cloudy 77 25 73 23 89 89 Calm 29.97 1015 10 16.0934 N/A
9:34 pm 21:34 Clear 75 24 72 22 89 89 Calm 30 1016 10 16.0934 N/A
9:54 pm 21:54 Clear 77 25 72 22 83 83 Calm 30 1016 10 16.0934 N/A
10:15 pm 22:15 Clear 75 24 72 22 89 89 Calm 30 1016 10 16.0934 N/A
10:34 pm 22:34 Partly Cloudy 73 23 72 22 94 94 SE 3 6 30 1016 10 16.0934 N/A
10:54 pm 22:54 Mostly Cloudy 75 24 72 22 89 89 SE 7 11 30 1016 10 16.0934 N/A
11:15 pm 23:15 Partly Cloudy 77 25 73 23 89 89 SSE 6 9 30 1016 10 16.0934 N/A
11:34 pm 23:34 Mostly Cloudy 77 25 73 23 89 89 S 5 7 30.03 1017 10 16.0934 N/A
11:54 pm 23:54 Cloudy 77 25 73 23 89 89 SSE 5 7 30.03 1017 10 16.0934 N/A

Powered by AerisWeather